Theta_e
304 304 304 304 305 305 305 304 303 303 304 303 297 301 299 298 293 301 304 308 309 302 295 298 296 295 296 299 299 300 299 297 298 297 299 297 299 296 296 295 295 296 296 295 292 292 290 293 291 294 295 295 294 297 296 298 296 297 294 297 293 295 290 288 288 290 291 292 293 293 291 293 293 294 294 294 291 293 291 289 290 286 285 284 285 282 288
303 303 303 304 305 305 305 304 303 302 302 300 300 298 294 295 294 297 306 309 307 299 289 289 293 295 296 298 297 300 299 298 295 296 298 297 295 295 296 294 297 295 298 296 292 295 288 294 295 292 296 293 291 292 295 297 295 296 294 293 297 289 290 291 285 285 286 289 292 291 294 293 292 292 294 294 296 292 290 288 290 286 287 287 285 281 287
303 303 303 304 305 305 305 304 303 303 303 303 301 294 295 295 298 298 300 307 305 295 297 294 293 293 293 295 293 294 295 300 297 298 296 299 299 298 294 296 297 296 298 296 297 296 294 289 295 297 295 294 293 293 297 297 296 300 301 298 299 291 291 290 284 281 279 278 280 283 286 288 292 294 295 295 294 294 289 286 287 284 288 288 286 286 292
302 303 303 304 304 305 305 305 304 303 303 303 299 295 294 290 287 293 297 301 301 302 300 301 296 293 293 292 295 296 294 296 298 301 298 299 299 300 297 297 298 295 296 294 293 294 295 295 290 293 292 292 291 295 293 295 299 294 296 298 298 290 295 292 290 287 285 287 290 296 296 292 288 290 291 292 293 295 293 292 288 285 288 287 289 290 292
302 302 303 303 304 304 305 305 304 303 302 302 298 293 292 292 289 290 286 295 297 296 299 298 298 293 296 289 295 293 295 295 295 301 295 298 298 298 298 296 294 293 294 293 293 295 293 293 294 293 293 293 293 293 295 294 294 293 295 298 295 291 289 292 293 293 293 295 296 298 296 292 292 291 291 293 291 291 289 288 286 292 287 284 291 293 289
301 301 302 303 303 304 304 304 304 303 302 302 300 288 289 286 288 290 293 290 288 290 292 298 297 298 296 294 296 294 294 293 291 296 299 299 299 295 294 296 299 295 294 295 290 293 292 293 290 295 294 292 293 292 295 294 295 293 297 301 297 291 288 293 293 293 294 293 293 296 295 295 295 294 293 292 292 291 287 288 293 294 288 286 292 293 291
299 300 301 301 302 304 304 304 304 304 302 302 298 288 288 289 287 289 293 290 293 295 296 298 297 295 295 295 294 294 294 292 295 295 295 296 295 299 291 293 296 296 298 295 292 293 287 287 293 289 290 292 290 290 291 294 295 296 294 295 296 293 289 293 294 291 294 294 294 296 295 294 294 295 295 294 293 291 291 291 293 293 292 294 294 297 295
299 299 300 300 301 303 304 304 304 304 303 301 294 290 288 286 287 287 292 293 293 296 296 296 295 293 294 292 293 295 294 293 296 298 296 292 295 299 295 295 297 297 297 296 293 294 294 294 290 294 292 288 294 291 293 291 292 294 292 294 293 293 289 295 294 289 290 292 291 292 294 294 292 295 296 294 293 292 293 293 294 293 293 295 294 296 295
298 298 299 300 301 302 302 303 303 303 304 298 293 290 291 291 291 292 290 287 289 294 296 294 293 292 293 291 294 295 295 295 297 297 300 297 295 296 295 298 296 297 297 297 297 299 298 299 297 296 294 290 295 292 292 295 289 291 289 290 292 292 288 293 291 286 286 289 289 290 291 289 289 291 293 293 292 289 291 290 294 292 290 292 292 290 292
296 297 298 298 300 301 302 303 303 303 303 298 294 288 294 293 293 291 291 286 288 288 294 295 293 289 293 294 295 295 295 298 298 293 299 300 301 299 300 297 295 293 294 294 297 301 300 301 302 300 301 302 301 300 299 295 292 289 290 293 289 289 289 287 288 285 285 285 288 287 287 286 284 285 291 294 294 293 294 295 295 295 295 290 288 289 296
298 297 297 298 299 300 301 302 303 303 303 297 293 290 292 291 289 291 291 286 285 286 290 292 291 293 296 296 296 298 297 298 297 292 292 299 299 302 301 297 295 292 292 298 302 303 302 302 302 302 302 300 299 299 299 300 297 295 293 289 291 291 290 289 290 285 285 281 285 287 284 278 280 292 296 296 294 293 292 292 293 295 296 294 296 297 299
297 298 297 297 298 299 300 301 302 302 302 301 299 293 293 293 293 292 288 285 284 286 287 287 291 289 294 296 296 295 296 297 297 303 295 297 298 300 301 299 298 290 298 302 303 304 305 304 303 302 301 300 300 299 299 298 297 297 299 294 290 289 289 289 289 286 284 282 284 282 276 279 292 297 299 298 297 297 295 296 296 296 297 297 296 297 298
297 297 298 298 297 298 299 300 301 301 302 303 301 293 294 294 292 290 289 286 283 285 285 284 286 289 293 296 295 296 298 299 299 300 299 297 295 297 299 300 298 299 302 302 304 301 296 292 294 296 295 298 298 299 297 297 296 297 296 298 293 289 289 290 288 289 286 282 283 276 278 288 294 294 293 297 297 297 295 293 296 297 297 297 296 297 298
296 296 297 298 298 297 298 299 300 301 302 302 298 297 298 297 291 289 288 286 283 283 285 286 286 287 289 291 294 294 296 295 295 298 295 296 297 297 297 297 296 301 303 304 301 298 292 292 287 288 287 289 288 288 293 295 295 296 295 296 298 295 290 289 286 288 282 283 283 282 289 287 288 292 290 292 291 291 291 287 291 296 297 297 297 297 298
296 296 297 297 298 297 297 297 299 300 301 301 300 298 298 298 296 292 290 289 283 284 284 284 286 286 288 287 290 290 290 290 291 288 291 294 293 293 294 295 296 300 302 301 296 299 291 290 286 285 286 285 281 283 290 287 291 294 295 296 296 296 290 289 287 285 288 284 282 282 282 279 286 294 297 297 299 298 298 292 288 297 298 299 297 296 297
296 296 296 297 297 297 297 297 298 300 300 301 299 297 297 299 299 298 292 288 287 281 285 287 288 288 286 286 286 288 288 289 289 289 288 287 287 293 294 295 296 299 300 300 299 293 290 287 285 285 283 284 287 285 282 287 286 289 294 295 295 296 297 293 289 286 285 284 282 281 279 282 292 293 294 297 299 299 298 290 286 295 297 299 298 297 297
296 296 296 296 296 296 296 297 297 298 298 299 298 298 296 299 298 296 294 292 290 284 285 288 289 289 287 285 286 286 287 287 289 287 287 287 287 286 289 294 297 297 296 298 293 291 288 287 288 287 288 287 285 284 288 286 285 285 289 293 291 289 290 290 287 285 286 284 282 281 284 285 292 294 295 296 299 300 293 281 282 294 298 299 298 297 297
296 296 296 296 296 296 296 296 296 297 298 298 298 296 296 299 299 298 295 292 286 285 288 289 288 288 287 287 286 286 287 286 286 287 286 286 286 287 288 290 290 294 295 293 289 289 288 288 285 285 285 288 289 290 282 286 285 284 284 287 286 287 287 288 284 286 286 286 284 286 287 292 292 294 293 295 299 295 285 280 289 297 297 297 298 297 298
296 296 296 296 296 296 296 296 296 297 297 298 300 297 295 297 299 298 296 291 289 283 289 290 290 287 287 289 288 288 288 289 289 285 285 285 286 287 287 288 292 289 291 288 290 288 287 286 290 288 286 285 287 285 289 285 285 288 288 286 285 287 287 287 288 285 284 286 284 284 288 291 292 293 295 297 293 284 283 292 290 296 294 295 296 296 297
295 295 295 296 296 296 296 296 296 297 297 297 296 293 295 297 298 297 294 288 289 287 289 289 290 287 290 289 287 286 286 288 288 288 287 285 287 288 288 285 287 288 286 289 286 290 288 286 287 288 287 287 287 289 288 287 288 286 286 289 287 287 285 284 284 287 287 287 284 283 279 289 294 293 292 293 288 289 295 291 291 290 293 295 293 297 298
295 295 295 295 296 296 296 296 296 296 297 297 296 294 292 297 297 298 298 295 289 286 286 292 293 291 291 289 289 290 289 287 287 287 286 287 290 290 282 283 286 287 285 287 284 285 287 287 288 287 289 289 288 288 285 287 285 287 288 289 288 292 285 285 286 290 283 284 282 283 290 291 296 296 290 291 296 296 295 299 293 292 294 294 296 295 299
295 294 294 294 295 295 296 296 296 296 297 297 296 295 291 294 297 297 298 297 290 287 289 291 292 292 292 293 292 292 291 290 289 290 288 286 287 288 286 285 285 286 287 287 286 285 285 287 288 286 284 286 290 286 287 286 284 285 284 287 285 292 289 289 286 290 288 286 289 291 292 293 298 298 297 297 298 295 296 297 298 296 296 294 294 297 297
294 294 294 294 294 294 294 295 295 296 296 297 296 294 291 294 294 297 298 291 292 292 293 291 293 293 295 294 296 295 294 294 294 292 291 290 286 287 286 286 285 287 287 288 286 287 287 287 284 288 286 287 286 286 285 286 286 286 285 289 289 288 290 288 290 290 293 291 292 295 291 293 295 295 295 294 297 295 294 296 298 299 297 295 296 298 297
294 294 294 294 294 294 294 294 294 296 296 296 296 294 292 294 295 294 292 291 286 284 288 289 287 285 287 288 292 294 294 294 294 295 294 293 287 284 286 288 289 287 286 288 289 287 287 286 285 286 284 287 287 285 283 282 284 287 287 287 287 289 288 289 289 290 290 286 294 292 292 294 294 296 294 293 290 293 293 295 297 297 295 294 294 294 295
294 294 294 294 294 294 294 294 294 295 297 297 296 296 295 293 296 294 289 282 283 283 279 283 284 289 289 293 294 292 294 296 297 295 295 294 293 289 286 288 289 288 287 288 288 288 287 284 284 283 283 286 286 283 288 285 283 288 285 287 288 287 290 289 289 288 289 289 292 291 291 292 292 293 295 295 297 294 292 293 291 290 291 291 292 291 291
294 293 294 294 294 294 294 294 294 295 296 296 295 293 291 291 296 295 291 289 287 284 279 278 282 289 292 290 288 292 296 295 295 294 294 295 295 293 290 290 289 291 290 289 289 287 286 284 284 284 284 283 288 284 282 284 284 285 285 287 290 288 290 286 289 288 290 293 292 290 291 291 291 291 291 294 296 295 291 290 289 289 290 290 290 292 292
294 294 293 294 294 294 294 294 294 294 295 295 294 295 292 293 295 292 289 287 283 278 281 278 283 284 287 286 291 292 294 294 294 293 293 294 294 294 293 292 290 290 290 287 288 286 285 285 285 283 286 284 285 284 285 284 284 284 284 287 287 288 286 290 289 286 287 288 289 288 288 289 292 290 291 291 292 292 291 289 289 289 289 289 289 288 289
294 294 294 294 294 294 294 294 294 294 295 296 294 293 295 293 294 295 294 292 285 279 280 280 280 282 287 284 289 290 292 293 292 292 292 292 293 292 292 291 288 287 287 286 284 284 284 283 282 285 285 285 284 283 285 286 286 283 283 286 289 287 289 289 286 286 286 289 290 293 293 292 289 288 289 292 292 291 290 290 290 290 291 290 289 288 288
294 294 294 294 294 294 294 294 294 294 296 294 291 291 291 293 294 295 295 294 290 283 281 282 284 282 277 282 288 288 291 292 291 291 291 291 291 291 291 291 289 289 289 287 286 286 285 284 287 284 283 286 286 283 284 279 280 280 284 289 289 290 291 290 290 289 288 289 290 291 290 289 289 287 288 289 291 291 290 291 291 291 290 290 289 290 289
293 294 293 293 293 293 293 293 293 295 295 292 289 286 282 284 292 293 295 292 290 287 281 278 275 278 285 283 282 286 289 291 291 290 290 290 289 290 290 290 289 291 288 286 286 282 285 285 285 286 286 287 284 284 281 282 281 283 289 290 290 291 290 290 292 289 288 289 289 289 289 288 287 286 287 288 289 289 290 290 290 290 289 290 289 289 290
293 292 292 292 292 292 292 292 293 294 293 289 286 279 275 273 282 293 294 291 289 287 282 283 277 283 279 282 284 283 286 288 289 288 289 289 289 290 291 291 288 288 285 286 285 285 286 283 284 283 287 288 286 283 280 280 279 282 286 289 290 290 289 289 290 290 291 288 286 286 287 287 287 288 288 287 288 288 288 289 287 286 286 288 287 286 288
293 292 292 292 292 292 292 292 293 293 290 288 283 280 281 282 290 292 294 292 291 285 282 276 278 276 277 282 282 282 285 287 286 286 288 289 285 288 286 288 287 290 288 286 286 286 284 286 284 284 284 287 287 281 282 280 279 280 286 287 289 289 290 288 288 288 288 288 287 286 287 288 288 287 287 287 287 287 287 284 282 282 280 281 280 279 279
292 292 292 292 291 291 291 292 293 292 290 292 294 294 294 294 292 293 293 290 287 284 285 280 274 278 276 277 282 280 283 285 283 285 283 288 284 287 283 286 285 285 290 286 283 282 286 285 286 283 285 288 283 282 280 279 280 285 286 287 287 287 287 288 287 288 287 287 288 285 285 287 287 285 285 285 285 285 285 283 280 280 281 280 278 278 278
292 292 292 292 292 292 291 292 292 292 292 288 284 285 291 293 293 293 293 290 286 285 284 278 275 274 273 282 275 281 286 281 280 283 279 286 285 285 283 285 285 283 285 283 285 284 284 284 283 284 286 283 285 282 277 280 284 285 286 287 286 286 287 287 287 287 287 286 286 287 286 283 282 283 284 284 282 281 281 280 279 279 279 279 279 280 277
292 292 292 292 291 292 292 292 289 287 284 284 284 289 291 292 293 293 291 286 279 277 278 278 279 274 274 273 272 278 284 281 278 282 279 282 287 282 284 280 283 280 281 288 283 283 282 282 285 282 279 284 282 277 279 282 283 285 286 286 287 287 286 285 286 286 286 282 283 284 282 282 283 283 285 284 282 280 279 278 278 279 280 280 281 277 274
292 292 291 291 291 292 289 288 286 284 281 281 283 289 292 292 292 292 289 285 283 278 276 276 277 273 275 271 271 276 284 278 281 280 279 282 280 283 283 282 277 281 285 282 278 283 280 286 284 277 283 279 277 280 282 284 284 284 285 285 287 286 286 286 286 286 285 283 282 283 281 281 281 282 283 281 280 278 279 278 277 277 279 280 280 278 274
291 291 291 291 289 285 281 281 286 284 282 287 290 292 291 289 286 286 283 283 284 284 279 277 274 274 276 275 279 279 281 273 281 277 279 278 277 282 280 279 275 281 279 277 279 278 282 288 281 278 279 276 279 284 285 285 285 284 284 286 286 287 287 287 287 286 282 279 278 280 280 279 279 279 280 281 281 279 276 276 277 277 277 278 280 278 276
291 291 287 283 281 276 275 279 281 286 291 290 290 286 283 284 279 280 281 279 282 283 279 279 274 278 279 277 273 280 280 276 283 275 277 281 278 274 280 278 277 280 269 274 278 284 282 280 277 277 277 282 284 284 285 286 286 287 286 286 286 286 287 287 285 282 278 277 278 278 276 276 276 278 279 279 280 278 278 279 280 280 280 281 281 280 276
289 284 282 281 278 274 275 278 288 290 287 285 284 279 276 279 276 273 273 278 280 275 279 278 274 278 277 275 277 284 278 277 276 276 273 280 275 272 279 271 277 278 270 274 276 286 275 276 277 277 275 279 280 282 285 286 286 286 287 287 287 286 286 285 286 284 282 283 284 285 284 283 282 282 281 279 280 281 280 280 279 279 279 279 280 277 275
282 279 278 277 276 278 285 288 291 288 285 279 279 277 271 275 273 269 279 271 271 276 278 272 278 278 278 276 276 276 283 277 273 273 275 278 282 273 278 275 277 274 266 271 274 284 274 271 275 274 273 278 279 283 284 284 284 285 285 286 285 286 284 285 285 286 287 287 287 287 287 287 286 285 285 284 282 281 280 278 278 278 278 278 278 277 274
280 279 278 276 280 282 283 285 285 282 279 276 274 272 271 268 272 272 272 270 271 271 277 276 278 275 277 277 279 275 283 283 280 281 279 274 283 278 274 267 279 270 267 270 278 276 273 273 273 273 274 279 280 282 283 283 283 283 283 283 283 282 283 283 284 284 284 284 285 285 285 285 285 285 285 285 285 283 282 281 279 277 277 277 276 276 277
281 281 282 284 283 283 282 280 279 274 271 275 271 268 270 270 272 268 271 268 269 274 272 274 272 274 275 277 277 280 279 278 280 280 277 273 281 273 271 273 272 267 266 275 277 272 274 269 270 272 277 279 281 280 279 279 280 280 281 282 282 281 279 281 282 282 283 283 284 284 284 284 284 285 285 285 284 284 283 282 280 278 276 277 277 275 273
288 286 284 281 279 276 278 272 274 271 266 266 266 264 268 263 266 268 269 273 273 271 273 278 276 281 278 279 277 279 278 282 277 276 275 272 279 273 271 269 270 264 271 277 272 271 270 268 270 274 279 279 279 279 278 279 280 279 279 280 280 282 281 281 281 281 281 280 281 282 283 283 283 284 284 284 283 282 281 279 280 280 278 275 275 273 271
283 282 277 274 273 272 274 263 274 268 263 265 264 260 265 264 267 268 265 270 272 272 276 272 275 276 272 280 277 278 277 278 280 275 272 271 272 269 271 265 266 274 277 267 269 269 270 273 274 277 279 279 278 276 275 276 277 278 278 279 280 280 278 279 279 278 279 279 278 278 278 278 279 280 280 277 276 278 280 281 278 276 274 271 271 270 268
277 273 272 270 267 272 269 262 270 265 261 262 269 266 267 263 267 269 269 275 275 272 277 277 278 276 274 276 278 277 279 274 280 274 268 272 268 270 267 267 273 272 269 267 270 269 270 270 276 278 277 276 276 274 273 275 276 277 278 277 278 276 275 274 274 274 275 275 274 273 274 275 275 275 276 276 276 274 274 276 276 270 268 269 269 267 264
274 272 271 266 264 268 266 262 263 261 266 269 268 269 269 271 271 270 274 273 274 275 274 276 277 277 274 277 274 274 277 275 269 269 273 271 268 267 271 274 272 267 267 269 267 266 268 273 277 278 278 277 276 275 275 275 272 271 272 274 276 272 269 269 268 269 270 271 271 270 271 271 271 272 273 273 270 268 269 270 268 268 267 266 266 266 263
273 272 271 269 266 266 267 262 261 267 270 271 272 273 273 273 273 274 273 273 275 277 277 277 277 277 274 273 272 272 271 272 269 272 271 263 265 269 273 268 264 266 264 264 266 268 271 275 278 278 277 275 275 274 271 267 263 264 265 266 266 267 267 266 266 266 267 266 266 267 268 268 268 268 266 267 268 265 263 261 262 263 266 267 266 263 260
270 273 270 264 263 267 264 266 271 268 268 271 273 274 273 274 272 271 271 272 276 277 275 275 273 275 273 275 275 272 273 270 270 271 271 268 270 263 263 263 264 266 266 267 268 273 274 277 277 278 275 270 264 264 263 261 260 260 261 262 262 263 263 263 263 264 264 264 264 265 265 265 263 264 264 264 264 263 259 259 260 261 263 262 260 260 259
272 268 267 266 266 267 269 271 269 269 270 267 267 271 271 272 272 274 273 272 274 274 276 275 274 274 266 273 270 271 265 266 266 268 271 265 264 262 264 258 260 263 267 271 272 275 275 277 272 266 260 258 258 257 258 258 258 257 258 258 259 259 259 260 261 261 262 261 262 262 262 262 260 261 261 260 260 262 258 258 258 259 260 260 259 259 258
268 265 264 264 266 266 267 268 270 269 269 267 269 270 272 272 273 273 271 272 272 275 276 276 277 273 270 270 265 269 268 270 267 269 266 264 264 263 263 258 263 265 270 272 272 276 273 261 260 262 257 253 255 256 255 255 256 256 257 257 257 257 258 258 259 259 260 259 259 259 259 258 259 260 260 260 260 257 256 257 257 257 257 257 258 258 257
268 267 265 265 267 268 268 265 266 267 268 268 270 270 270 271 273 271 267 270 273 273 273 270 272 270 267 265 265 263 265 271 266 264 266 266 267 263 263 264 268 271 273 275 269 262 257 257 256 256 255 255 254 254 254 254 254 254 254 255 255 256 256 257 257 258 257 256 255 256 257 257 257 258 257 255 255 256 256 256 256 256 256 256 256 257 257
267 265 267 263 259 263 269 270 271 271 270 271 271 270 271 271 269 267 266 271 274 271 269 272 270 267 264 262 265 269 269 266 263 264 262 265 267 266 266 270 273 274 274 274 265 258 256 254 253 251 251 252 252 251 251 251 251 251 253 254 254 254 255 255 256 255 255 255 254 254 254 253 253 254 255 256 256 256 256 257 255 255 256 256 256 256 257
Wind_Speed
11 10 9 9 10 11 11 11 11 11 8 3 1 2 6 2 4 3 0 3 9 10 7 7 9 6 3 6 7 7 5 5 6 8 3 4 1 2 3 6 7 1 3 8 9 13 4 9 8 5 7 5 3 1 3 11 13 8 2 6 4 2 3 4 3 3 1 3 1 3 1 2 3 7 4 2 9 10 6 3 2 4 4 2 3 4 3
13 12 9 9 10 11 11 11 11 11 10 2 1 4 4 3 5 4 2 2 4 9 12 15 12 7 5 5 6 2 3 7 7 6 7 4 4 5 4 2 3 6 2 8 12 13 4 6 4 6 3 3 2 1 6 15 9 11 9 11 8 4 2 5 5 2 2 2 2 1 1 1 5 7 8 7 1 6 3 1 0 2 7 7 5 7 6
12 12 12 10 10 11 11 12 12 11 10 5 1 4 4 6 3 5 2 1 4 10 5 10 11 12 12 10 10 7 4 4 4 6 7 1 2 6 4 2 6 4 4 5 5 12 2 4 4 3 3 2 1 4 5 12 10 3 4 6 10 5 6 9 7 8 8 8 9 10 8 11 6 3 3 9 7 7 3 4 4 6 4 9 5 7 5
11 11 12 11 10 11 11 12 13 12 11 10 4 3 3 1 7 1 3 2 2 5 4 4 9 12 11 11 9 9 6 2 2 2 5 2 3 4 6 2 4 6 9 5 6 8 2 1 5 6 5 2 2 1 3 5 3 3 2 8 10 2 1 8 11 11 11 9 9 6 7 7 6 12 13 12 13 12 7 1 5 9 4 7 9 10 7
10 10 11 12 12 11 11 12 13 12 11 10 4 4 3 2 4 5 6 5 4 5 6 4 9 11 14 9 10 11 10 8 4 4 4 4 2 3 2 5 8 6 12 9 9 10 5 1 6 7 8 3 3 4 2 4 4 2 3 8 5 1 3 7 10 11 11 5 2 6 14 12 15 17 15 14 12 10 9 10 13 10 3 8 9 11 9
10 10 10 11 13 13 12 11 11 12 9 8 4 5 4 3 1 4 3 1 11 10 12 11 12 11 15 8 10 12 12 11 8 3 3 4 2 5 2 2 3 14 15 12 7 9 6 4 5 5 3 6 2 4 3 2 1 1 4 3 4 5 7 10 11 13 10 5 3 8 10 12 10 12 10 12 14 13 12 13 15 9 8 12 14 13 14
8 8 9 10 12 12 12 11 10 11 9 4 4 4 2 2 1 1 5 1 2 7 6 14 13 13 16 6 14 13 15 14 10 7 6 4 5 4 6 11 9 12 10 11 7 11 7 4 4 5 5 8 7 4 3 2 2 2 3 4 1 3 6 7 10 12 9 4 3 2 8 7 8 9 11 13 13 14 16 16 16 17 13 13 14 4 14
7 8 9 10 11 12 12 11 10 10 7 4 6 4 1 2 1 1 3 6 6 6 11 12 11 14 15 6 13 12 15 14 8 6 7 7 7 2 3 11 9 9 10 9 9 13 14 12 9 4 9 2 3 6 4 6 3 3 6 4 2 3 3 6 4 5 7 3 3 2 2 4 6 4 8 12 13 15 14 14 16 17 17 14 12 7 9
7 6 7 9 10 11 12 12 10 10 6 4 4 2 3 2 2 2 3 5 2 3 11 12 14 11 13 9 11 10 15 12 11 5 3 4 9 9 10 11 8 2 4 3 4 10 4 3 10 15 18 11 11 9 2 8 9 4 3 2 1 2 1 2 4 5 4 2 4 4 3 3 1 2 6 11 11 13 12 13 13 14 14 17 14 14 12
3 4 6 7 9 9 11 11 11 9 6 3 2 3 0 2 0 1 2 3 3 1 5 12 11 10 13 10 13 10 16 11 12 6 2 4 3 7 9 10 9 3 5 9 3 5 6 6 5 8 3 6 6 5 6 14 14 7 7 3 5 5 3 3 4 5 4 3 1 5 4 1 4 8 12 16 17 17 15 14 14 14 16 16 11 16 16
8 3 4 6 7 8 10 11 12 11 4 3 3 3 1 1 1 1 3 3 2 2 3 5 10 1 8 8 10 5 11 11 11 9 4 2 2 2 10 12 9 5 9 4 4 8 10 9 9 8 6 7 6 4 5 5 7 9 11 4 1 8 9 4 7 8 2 3 3 4 4 9 11 11 17 16 17 18 13 12 16 17 17 12 14 12 4
4 8 6 3 4 6 8 10 11 11 6 3 3 4 2 1 2 3 1 2 2 2 0 3 3 2 7 8 7 10 11 13 9 2 9 3 4 1 8 6 6 3 2 6 10 12 12 11 12 11 10 9 8 6 5 7 4 3 0 5 8 7 6 5 4 5 2 2 3 4 11 14 9 2 4 16 16 10 13 14 17 16 15 15 16 13 13
3 4 6 8 3 4 7 9 10 10 9 4 3 4 1 1 1 2 1 1 2 1 1 0 2 2 3 5 9 7 6 7 7 8 7 7 4 2 3 1 4 5 10 11 11 10 9 7 9 8 6 8 7 8 6 5 3 2 1 1 6 8 9 3 3 3 4 3 6 11 9 4 1 2 2 3 6 11 10 16 15 15 16 16 17 17 15
1 2 4 6 8 2 4 8 9 10 9 5 5 4 2 1 1 2 1 1 2 3 1 5 2 2 4 3 6 7 9 7 6 5 5 4 6 5 3 3 2 2 5 6 6 9 5 1 4 2 2 2 1 1 1 4 6 0 5 4 2 8 5 5 4 3 5 5 10 10 4 5 2 5 6 11 11 11 14 13 14 13 11 13 14 15 15
2 1 3 5 7 3 4 5 8 9 8 7 6 5 4 4 3 2 0 2 2 1 2 3 3 3 6 3 5 7 3 5 8 3 3 3 5 3 3 3 4 3 2 2 3 1 3 3 4 4 4 5 6 5 2 1 1 4 4 2 1 5 8 5 8 3 4 5 5 4 5 12 11 8 4 8 4 6 8 8 14 11 15 17 17 17 15
2 2 2 3 5 4 6 5 4 7 7 6 5 5 5 3 2 1 1 1 3 2 2 1 2 4 5 2 2 4 7 6 3 4 2 2 1 2 3 3 2 4 1 3 2 4 3 4 4 7 7 8 2 5 2 3 1 1 2 1 3 2 2 1 8 3 5 6 7 7 9 11 2 4 8 9 7 9 6 4 11 13 14 15 15 16 17
3 3 3 2 2 4 3 3 3 4 5 5 2 3 4 5 3 2 1 1 0 1 3 1 2 3 4 4 2 2 2 5 7 7 6 4 2 0 2 3 3 4 2 3 1 2 2 2 4 4 1 5 6 4 5 5 5 1 1 3 3 4 5 4 7 6 6 7 9 10 4 8 4 6 4 10 8 11 8 5 10 12 7 12 15 17 16
5 4 4 4 4 2 2 2 2 3 4 4 3 3 3 4 4 3 1 0 3 3 1 2 1 3 1 1 3 2 3 3 3 2 3 2 3 1 2 1 2 3 3 5 3 4 3 4 9 8 7 1 0 6 8 7 6 7 8 10 5 6 5 8 11 11 10 10 7 5 6 1 4 6 5 7 9 13 10 12 2 3 12 15 12 11 13
5 4 4 4 4 3 1 2 3 4 4 3 3 4 3 5 6 5 1 1 0 3 3 1 2 3 1 0 4 3 0 1 1 5 4 4 1 1 4 0 0 4 1 2 5 4 7 5 0 2 6 2 1 7 4 7 5 4 11 9 3 6 5 5 7 11 12 10 10 9 6 2 7 4 8 10 9 8 11 3 3 1 2 2 3 8 7
6 5 5 5 4 3 3 1 2 4 3 3 3 3 2 5 6 6 4 1 2 5 4 4 4 5 3 3 3 2 1 2 2 1 2 3 1 4 3 2 2 2 2 1 6 2 6 9 8 2 5 5 5 2 3 1 2 7 5 11 9 10 7 10 10 5 3 3 8 6 11 3 9 13 4 3 4 2 3 4 2 3 1 1 0 0 2
7 6 6 6 6 6 4 4 1 4 4 3 1 3 3 4 6 6 5 3 0 4 3 3 4 7 6 7 7 5 3 2 1 2 1 3 2 3 5 3 4 3 5 6 10 7 3 7 5 3 0 3 3 1 7 7 3 4 2 7 2 9 6 4 5 9 7 10 10 7 1 8 10 13 9 8 4 2 1 1 3 0 1 2 0 2 1
8 7 6 6 7 7 6 5 4 4 5 3 3 2 3 3 4 5 5 4 4 4 4 3 3 4 5 5 5 5 4 4 1 2 2 3 2 2 1 3 2 1 0 0 1 1 1 1 2 2 4 2 2 5 4 8 6 2 3 1 6 8 9 4 6 6 7 5 8 2 1 6 4 5 6 8 7 3 1 5 4 2 1 2 1 2 2
8 7 7 6 6 6 6 6 6 5 5 4 3 2 3 3 3 4 4 5 4 3 2 2 1 2 2 2 3 3 2 2 2 3 4 3 2 2 2 0 1 0 0 1 0 1 1 2 2 1 1 1 3 4 0 1 2 4 6 3 0 5 1 1 1 3 0 3 2 5 1 1 4 1 3 4 2 1 1 1 1 1 2 4 2 1 1
8 8 7 7 6 6 6 6 6 6 6 5 4 2 3 3 3 3 4 4 1 2 2 3 0 1 1 3 2 1 1 2 2 3 1 3 2 1 1 1 1 2 1 1 1 1 1 1 0 1 2 1 0 3 6 5 3 3 3 2 1 1 1 0 3 0 7 9 11 8 4 3 4 3 2 1 1 2 3 2 2 2 4 2 2 2 1
9 9 8 8 7 7 6 6 6 7 9 10 8 6 5 3 1 2 1 2 0 1 2 2 1 3 2 1 0 0 1 3 1 3 4 5 5 2 2 2 1 1 3 0 1 0 2 2 0 1 3 1 1 2 0 2 1 0 5 2 4 3 3 2 3 2 10 2 3 5 4 2 2 0 1 3 3 3 2 2 4 3 3 2 1 2 2
9 9 9 8 8 7 6 5 6 7 7 7 5 3 2 2 2 2 4 4 3 2 0 1 1 4 2 2 1 3 3 1 1 3 5 4 6 8 8 4 3 3 3 1 0 2 1 2 1 1 1 1 3 0 1 1 1 3 1 1 0 1 7 3 6 6 4 7 4 3 2 4 3 2 4 6 5 1 2 3 3 2 0 1 2 2 2
10 9 8 9 8 8 7 6 6 6 7 6 3 4 4 3 2 2 2 2 1 1 1 1 1 1 3 1 2 3 2 1 1 2 4 4 4 4 5 6 6 3 3 2 3 1 1 1 1 1 0 1 1 1 1 1 1 1 2 3 2 2 5 3 4 4 6 6 3 5 3 4 2 2 4 6 5 3 1 2 2 3 3 2 2 0 2
10 9 9 8 8 7 7 7 6 6 7 8 6 4 3 3 0 2 3 5 1 1 1 2 2 2 2 3 1 1 2 1 1 2 3 3 4 4 4 4 2 2 1 1 1 1 1 2 2 1 1 0 1 1 2 1 0 1 4 6 5 8 5 6 5 6 4 5 3 3 2 4 5 3 3 3 2 1 4 6 4 3 3 3 4 3 2
9 9 9 9 7 7 6 7 7 8 10 7 3 4 3 2 2 1 2 2 2 2 2 1 1 2 1 1 5 3 2 0 2 3 3 5 4 4 5 4 3 3 3 1 0 1 1 1 2 2 1 2 1 1 3 2 3 7 6 6 5 5 3 2 4 5 4 3 5 3 3 3 3 2 1 2 2 2 5 5 3 4 4 5 5 4 3
10 9 9 8 7 7 7 6 8 11 10 4 2 1 0 0 1 2 2 1 1 1 1 1 1 1 2 4 2 1 2 1 2 2 3 4 5 4 4 5 3 4 1 1 1 2 2 1 1 1 1 2 3 2 1 2 6 9 8 6 8 5 3 1 3 1 1 4 2 3 3 3 2 1 2 3 1 2 2 3 4 1 1 2 4 4 2
10 10 9 9 8 8 7 7 9 12 8 2 1 1 0 0 1 3 4 3 0 1 1 0 1 1 2 0 1 0 2 3 3 2 3 2 2 2 2 2 0 2 3 2 2 3 3 3 2 1 1 1 1 1 2 3 6 5 11 10 8 6 4 3 3 1 1 4 4 3 3 2 1 2 3 3 2 1 2 2 4 5 3 1 1 3 2
12 11 10 9 9 8 8 7 10 11 4 2 2 1 1 1 3 3 4 3 2 2 1 3 3 2 2 1 1 3 1 2 2 1 2 2 1 1 2 0 2 4 3 3 3 3 5 6 5 3 3 4 4 1 2 5 9 14 7 6 4 3 4 4 3 1 2 3 3 2 1 2 3 2 2 5 3 2 2 3 5 4 4 3 4 4 4
13 12 11 10 9 9 8 7 10 8 4 6 9 10 8 7 4 6 6 3 2 1 2 2 2 3 1 2 2 2 1 2 1 2 2 3 2 3 0 1 0 0 3 2 4 4 3 4 3 7 5 3 3 2 6 11 14 17 6 4 2 5 3 3 2 1 2 4 2 2 4 3 2 3 3 2 2 1 0 1 2 2 2 1 1 1 1
14 13 13 11 10 9 8 9 10 9 6 3 1 1 2 6 6 7 6 4 2 1 0 2 4 2 1 1 4 2 7 4 3 5 4 3 1 3 3 3 2 2 3 6 4 3 0 1 7 7 4 2 2 4 10 13 19 18 10 4 2 5 4 5 3 5 2 5 3 3 2 1 1 0 1 2 3 2 2 2 2 1 2 2 3 3 3
15 15 13 13 11 10 12 11 5 1 2 2 1 1 4 7 8 9 7 3 4 1 2 2 2 5 5 1 1 1 3 2 4 5 5 2 2 4 5 3 3 6 4 3 2 5 7 6 4 7 9 5 7 10 10 16 18 13 8 5 5 5 7 7 8 4 2 3 4 3 2 1 2 5 4 2 3 3 3 2 2 2 4 5 3 2 2
16 15 15 13 14 12 6 4 1 2 1 2 2 3 8 6 8 4 0 2 1 2 4 5 4 6 6 7 6 1 4 2 3 2 0 2 1 2 1 4 7 7 0 3 5 6 9 6 6 9 6 9 13 11 14 14 14 11 8 7 6 7 7 7 4 1 2 1 2 1 1 1 3 6 3 1 3 3 4 3 3 2 3 5 7 7 3
20 18 15 14 8 3 2 2 1 0 0 1 6 10 12 10 3 3 3 1 0 0 2 4 7 8 9 6 2 1 5 4 4 2 4 3 5 3 3 3 7 3 3 2 6 10 8 4 3 6 8 12 12 14 14 13 12 13 11 9 6 3 4 5 5 2 3 1 2 2 1 1 4 3 6 7 8 4 3 5 10 8 11 14 12 9 12
12 14 9 5 4 2 2 2 2 3 8 11 10 5 2 1 2 2 2 2 2 3 2 1 3 6 3 6 6 4 4 3 4 4 4 2 3 1 2 4 4 4 2 4 8 5 2 1 2 7 11 11 12 13 14 15 14 14 12 10 5 3 3 4 1 3 2 3 4 4 5 5 8 7 7 9 8 8 12 13 11 9 10 10 9 7 4
15 7 4 1 3 3 2 2 3 9 8 4 2 1 1 0 1 1 2 2 1 3 4 6 7 7 4 6 4 1 2 4 3 3 4 5 3 3 3 3 5 2 2 3 3 8 4 6 7 9 14 9 12 17 17 15 13 11 9 6 4 2 0 2 5 8 7 9 10 9 8 9 11 12 9 9 9 10 9 9 8 7 9 10 9 5 7
6 6 5 5 4 2 5 4 9 8 3 2 0 0 1 0 2 3 2 2 1 2 3 5 5 6 7 8 8 6 3 2 4 5 5 4 2 3 3 3 3 4 3 6 4 7 6 8 7 8 13 11 15 16 14 12 12 10 7 6 5 4 2 6 6 9 11 12 13 13 12 12 11 12 10 8 8 10 9 10 11 10 8 11 12 8 10
4 3 2 5 5 5 3 2 3 2 2 2 1 1 0 1 1 1 1 3 4 2 1 3 3 3 3 3 5 8 1 3 1 1 1 2 3 3 0 2 5 3 3 5 2 4 2 4 6 10 11 11 13 11 8 7 9 8 5 4 5 4 4 6 9 8 7 8 9 10 11 11 11 11 11 11 10 10 11 11 11 12 12 10 10 13 13
2 3 4 6 5 5 3 2 1 2 1 0 2 2 2 1 1 3 2 3 4 2 1 2 2 6 5 7 6 5 2 1 1 0 2 3 2 3 3 1 2 4 2 2 2 1 3 3 6 10 10 12 7 3 2 4 4 5 6 6 5 5 5 6 8 8 7 10 10 10 10 10 11 11 11 11 11 11 11 11 11 10 11 13 11 6 5
21 15 8 4 3 1 1 2 0 1 2 1 2 1 1 2 3 4 2 2 1 1 1 2 1 2 2 1 2 0 1 2 1 1 1 2 1 2 1 1 2 2 4 2 2 3 5 4 6 10 9 7 3 4 5 5 4 3 5 6 6 7 6 6 8 10 9 9 10 11 11 11 11 12 11 9 9 12 11 10 10 10 10 10 10 9 7
6 4 4 0 2 1 2 3 2 4 1 0 3 4 4 3 1 2 1 2 2 1 2 4 5 5 4 4 4 3 2 0 1 1 0 2 2 1 2 2 4 3 3 4 1 6 7 3 7 7 8 5 4 3 3 4 4 5 6 9 8 6 5 5 4 5 7 5 5 6 6 8 10 11 9 6 6 11 13 12 8 6 5 5 7 10 8
7 2 2 2 2 2 3 1 1 2 5 3 3 3 3 6 6 5 5 1 3 2 4 4 4 5 5 1 2 1 2 2 2 4 2 3 1 2 2 3 1 1 2 3 3 1 2 6 3 8 6 4 3 3 3 5 6 7 7 5 6 3 5 3 2 2 4 4 4 4 6 7 7 9 10 10 7 5 6 12 8 2 4 6 7 6 7
5 7 7 6 3 1 2 1 2 2 1 3 4 6 5 6 2 4 2 2 3 1 2 5 5 6 4 1 3 3 2 2 1 2 2 1 2 3 3 0 2 1 1 3 7 7 7 6 7 8 6 6 4 4 6 3 1 3 3 6 6 5 4 4 3 2 3 3 4 4 6 5 6 7 10 9 6 6 6 7 5 4 4 5 10 12 8
2 1 1 1 3 1 1 2 3 3 3 4 4 5 6 4 1 1 1 1 2 2 2 1 1 2 4 3 2 1 0 1 2 2 3 1 2 1 2 2 1 3 4 4 6 6 5 6 7 6 4 3 4 2 2 5 6 6 5 5 7 6 4 4 4 4 4 3 4 6 7 7 7 6 6 10 10 5 4 4 4 3 6 11 7 3 6
6 1 2 3 4 3 5 3 2 1 1 1 1 2 1 2 2 2 2 2 0 2 3 3 2 2 1 2 1 3 2 0 3 3 2 3 1 3 0 1 2 1 2 5 7 5 6 3 3 3 0 5 6 5 5 6 7 7 6 6 7 8 8 8 8 6 5 6 6 6 7 6 5 7 7 9 11 7 2 3 2 3 5 3 2 7 9
2 1 2 2 1 2 4 3 5 6 3 1 0 2 2 4 5 3 2 2 1 2 1 2 2 2 1 0 1 4 3 2 3 4 2 0 2 4 3 2 3 4 3 3 5 4 3 2 1 4 5 6 5 4 3 2 3 4 5 6 6 7 8 8 8 8 7 6 6 6 7 5 5 5 7 6 8 8 1 1 1 2 3 5 6 8 10
2 1 2 2 3 2 1 1 4 4 3 1 2 3 3 3 4 2 2 3 1 2 2 2 0 1 1 2 0 1 2 1 2 1 2 2 2 1 1 2 3 3 3 2 2 3 1 3 3 3 5 4 3 4 5 4 4 5 4 5 5 6 7 8 9 8 7 6 6 6 6 5 4 4 6 8 5 2 1 1 0 0 1 2 5 8 10
1 1 0 3 1 4 8 10 12 10 7 5 6 6 5 6 6 3 0 1 2 3 2 2 3 2 1 1 1 1 4 1 1 2 3 4 2 2 3 6 4 2 3 1 1 2 2 1 2 1 3 3 1 2 3 4 5 7 7 7 7 6 7 6 7 7 6 4 4 5 5 5 4 3 2 1 0 1 1 1 0 1 1 2 3 6 7
1 2 1 0 1 1 0 3 1 3 2 5 4 1 2 4 1 2 0 1 3 4 4 1 2 1 1 3 3 1 1 4 1 0 0 2 2 3 4 7 7 3 2 1 1 1 1 1 1 1 2 4 5 5 6 6 6 7 6 7 7 7 7 7 7 6 6 5 4 4 4 2 2 0 1 1 2 2 5 4 1 2 2 2 3 4 4
Wind_Direction
47 48 64 67 59 58 56 58 53 31 5 82 62 248 129 127 85 48 321 253 197 173 163 166 180 201 153 71 61 102 134 133 155 159 199 160 326 113 145 168 138 241 111 160 156 160 162 164 201 173 203 184 143 178 168 136 160 145 83 64 204 61 119 104 78 62 335 182 175 181 173 314 269 243 257 243 202 207 228 271 104 179 124 212 224 229 254
47 49 50 63 61 52 51 52 55 47 45 83 254 89 88 92 115 98 19 121 230 193 173 178 192 180 111 157 104 5 123 145 151 187 181 165 169 160 136 77 316 149 139 145 171 170 122 220 162 189 149 187 91 231 145 156 167 170 180 177 183 175 183 128 138 135 147 242 183 173 120 212 229 222 200 214 72 74 97 123 299 266 184 205 198 237 253
43 48 48 50 58 54 46 49 52 50 33 22 223 100 133 114 63 54 31 14 217 189 196 189 178 171 163 151 154 149 115 11 168 181 162 31 126 144 151 116 145 96 140 143 135 179 146 139 242 67 203 83 360 353 173 172 186 141 19 58 160 193 156 165 162 174 178 188 200 202 198 209 207 229 158 184 191 178 145 228 193 243 184 196 223 245 252
39 44 46 45 54 56 48 44 46 43 31 14 58 49 85 110 125 202 92 16 222 279 3 305 176 167 160 163 168 156 131 138 25 54 108 6 96 23 116 16 109 120 136 140 159 175 353 154 160 170 159 132 11 349 294 194 176 26 108 141 149 166 129 204 192 191 201 202 211 198 133 106 182 202 197 195 201 197 199 1 220 222 198 199 217 235 250
35 39 43 45 47 50 51 44 45 42 35 44 68 42 53 349 104 156 149 77 240 242 218 210 179 178 169 169 161 173 159 136 136 323 172 203 155 107 57 159 152 166 161 160 174 187 128 350 144 175 133 42 85 50 28 94 44 15 112 173 120 121 181 204 222 228 228 230 145 126 160 175 195 196 199 200 190 188 193 202 222 208 197 244 229 229 242
31 31 37 42 42 45 46 44 42 43 37 24 58 53 9 94 11 11 333 244 177 177 210 203 184 171 173 173 157 172 145 157 156 128 356 134 234 150 43 244 222 168 172 153 162 165 155 138 152 106 84 112 119 85 26 172 36 192 145 229 181 173 208 202 211 227 227 69 143 163 181 201 206 210 186 174 179 182 187 215 232 212 210 232 236 215 228
36 30 29 37 40 39 41 41 38 40 37 32 51 81 342 40 76 324 322 189 85 203 169 185 184 172 180 164 176 177 165 173 165 157 147 170 201 247 170 189 189 181 166 157 152 153 141 221 163 175 159 155 140 128 81 276 130 148 121 138 272 181 229 199 201 220 218 117 123 196 197 196 207 197 188 187 177 186 197 215 221 218 222 229 243 177 225
32 33 30 32 37 38 39 38 33 29 32 61 68 35 85 48 41 93 45 53 71 131 170 180 186 189 184 168 187 183 178 169 125 143 154 162 191 193 226 174 164 175 176 174 173 183 194 177 159 173 131 101 223 167 173 137 77 334 151 161 263 210 210 159 146 222 217 99 94 63 270 211 207 186 184 177 183 196 205 216 226 225 236 242 252 280 271
33 15 32 26 30 37 35 37 30 17 9 69 74 67 23 68 355 318 115 108 41 120 170 177 187 185 191 199 176 190 188 177 156 132 11 193 175 172 192 139 124 72 170 194 197 186 166 124 169 160 161 173 190 165 201 140 140 162 132 141 86 182 224 27 136 206 213 133 144 146 83 35 356 141 168 180 175 200 207 219 220 215 223 235 241 251 253
45 31 30 29 27 35 37 35 32 23 18 92 96 85 158 54 176 71 341 84 355 131 147 181 179 201 195 192 173 181 187 167 143 125 165 36 74 171 132 134 122 147 169 206 168 104 91 62 110 157 41 29 78 31 150 162 153 167 181 160 153 182 146 151 173 210 207 35 135 125 113 90 261 229 203 196 199 202 208 215 221 213 213 226 226 235 241
25 26 70 38 33 35 44 35 38 33 25 76 88 102 121 100 97 28 342 92 53 353 162 168 192 216 187 183 170 143 178 160 166 171 149 148 76 16 145 153 150 156 193 152 79 90 88 89 78 72 71 92 107 71 106 122 165 162 159 153 162 179 185 183 170 220 160 357 122 150 125 221 226 218 209 188 199 202 200 204 212 215 208 221 222 238 244
31 29 31 52 46 47 46 45 42 43 46 39 66 88 46 5 50 35 24 120 116 3 258 156 195 127 182 154 165 166 175 171 173 54 132 91 70 65 157 156 141 166 124 129 125 112 103 85 82 72 71 78 75 80 119 133 126 10 293 166 164 180 181 198 158 213 165 174 159 153 220 232 229 17 150 201 212 198 205 221 219 219 217 227 244 246 241
39 14 31 25 39 52 58 58 42 44 46 51 65 101 121 248 47 77 72 37 107 158 131 28 329 65 14 146 160 169 123 73 72 92 81 118 102 91 24 135 153 104 145 140 137 110 85 89 73 82 79 86 80 85 91 101 103 72 163 349 181 173 181 152 182 162 82 159 171 219 229 226 69 109 70 1 192 206 210 239 235 225 217 215 227 236 235
42 48 26 26 10 92 69 56 51 46 49 66 81 82 77 298 81 91 70 94 86 27 340 86 59 81 90 104 127 100 100 84 72 59 102 1 142 134 80 26 345 309 148 140 122 114 102 133 108 121 92 95 78 122 90 79 31 171 200 212 266 192 170 174 174 163 196 173 197 221 17 328 162 222 203 178 189 180 192 227 236 215 217 212 226 235 239
171 154 54 29 16 35 86 70 56 47 54 60 91 81 52 29 25 56 154 17 113 98 308 151 143 131 115 68 139 133 111 146 122 42 19 31 48 31 18 329 337 332 3 186 117 53 130 130 146 137 160 169 187 190 101 230 114 24 360 355 246 213 195 187 189 207 204 191 213 220 233 251 233 219 113 180 154 167 183 213 262 236 211 214 216 228 230
195 158 146 59 33 46 93 75 79 70 48 46 73 82 59 14 340 2 109 129 127 167 204 349 48 125 118 104 1 140 153 155 129 107 102 46 13 66 11 0 354 334 93 45 74 113 145 146 167 168 190 189 152 106 225 154 191 24 30 20 180 302 303 256 210 171 176 212 217 205 217 234 306 150 157 166 166 161 128 186 256 245 211 202 205 223 233
182 180 164 136 62 52 58 89 100 86 28 16 73 58 64 13 16 14 37 76 289 110 20 37 89 81 104 74 67 66 7 131 147 146 158 168 142 313 342 7 354 46 330 127 71 113 153 175 169 193 175 147 167 188 131 179 148 130 60 76 139 177 205 188 216 212 197 196 212 227 198 251 170 161 152 164 146 122 123 208 244 263 170 190 210 219 226
176 182 175 166 156 125 39 66 50 103 61 35 50 80 61 10 360 324 31 34 139 102 85 351 46 156 127 77 129 74 87 80 44 10 79 92 94 128 155 107 91 2 326 176 160 164 183 179 188 188 196 136 164 143 205 148 185 176 169 174 163 183 189 207 211 210 212 206 235 258 253 194 142 151 129 136 152 144 174 212 226 153 161 186 198 199 207
150 156 172 163 167 164 156 80 14 82 89 67 97 93 47 10 356 354 313 80 8 121 98 139 3 63 94 108 67 124 62 60 152 103 131 123 196 178 114 110 104 165 41 187 160 180 182 206 245 194 194 204 221 195 129 182 189 120 144 139 134 183 180 201 205 213 213 210 219 229 270 207 135 37 139 150 139 201 211 187 332 342 18 359 166 196 212
119 115 112 114 128 144 154 163 90 92 95 28 24 73 60 8 8 4 355 88 63 99 73 30 10 60 21 63 107 101 141 48 348 80 154 141 26 106 96 145 335 59 37 268 193 188 182 193 189 167 206 164 204 106 208 207 49 164 162 180 176 171 176 192 197 199 231 217 229 225 241 177 114 112 77 311 197 242 119 118 7 41 10 118 15 141 162
126 119 112 105 102 105 109 123 138 120 104 64 67 108 89 18 13 358 355 356 118 119 94 19 32 57 46 60 50 33 34 88 119 122 73 85 172 172 169 192 152 159 170 173 182 183 203 183 159 173 236 177 176 153 203 184 215 302 139 185 213 159 179 168 216 191 187 189 198 211 202 91 181 149 188 188 220 51 146 161 110 278 61 67 25 264 204
132 130 120 114 106 94 89 89 86 119 132 88 53 85 91 32 17 353 336 16 46 48 59 65 18 53 51 35 34 29 45 54 40 342 96 121 24 79 91 94 64 90 86 110 105 113 6 151 59 158 178 163 165 217 178 192 200 150 339 90 201 180 203 163 202 168 206 204 219 161 336 175 215 22 16 179 151 72 65 51 62 114 138 134 54 262 202
142 139 133 125 120 113 106 93 89 102 123 112 47 45 104 82 31 336 344 72 73 78 42 37 161 128 100 94 47 31 22 353 337 16 357 98 114 48 94 94 98 131 116 336 9 57 97 133 121 23 50 241 174 156 89 276 207 138 172 239 311 4 313 354 92 215 271 301 195 86 102 236 278 99 59 13 75 89 61 48 87 115 125 168 187 294 184
152 149 143 139 129 122 110 100 100 105 118 94 54 73 87 85 81 55 49 53 64 143 96 1 50 68 62 80 59 352 326 61 15 354 249 304 118 119 30 41 159 85 21 329 291 54 102 58 104 37 170 337 330 200 169 191 217 153 174 160 295 230 78 43 178 160 167 234 216 186 172 220 242 248 110 142 16 304 3 4 326 31 51 8 15 19 60
162 157 151 147 140 125 118 110 98 102 95 88 76 65 91 72 24 344 36 110 117 151 178 115 332 53 46 334 116 149 291 35 16 3 6 19 18 131 123 84 53 96 128 307 276 89 43 102 98 91 172 308 55 226 354 156 251 148 180 178 150 245 160 201 200 199 206 256 68 37 57 28 61 8 264 262 227 212 212 35 36 40 46 41 68 93 116
172 169 161 153 148 139 130 123 113 109 104 101 91 91 112 98 99 37 66 37 35 35 86 135 122 42 311 15 346 29 7 331 68 55 44 14 38 89 118 134 83 30 88 73 315 61 86 57 56 44 163 186 22 209 8 334 43 10 265 215 43 103 129 198 183 214 262 287 236 138 156 162 213 198 234 241 260 339 81 67 52 29 127 166 162 227 230
181 173 171 162 157 149 141 134 127 121 110 97 75 64 71 95 161 174 134 200 147 77 293 245 142 26 15 349 24 31 355 306 144 106 89 92 100 80 98 112 107 110 88 81 44 87 74 78 90 167 105 64 77 21 22 64 49 208 200 213 193 183 197 163 145 216 223 233 229 126 249 263 141 104 327 306 341 48 69 110 205 217 221 179 173 336 351
179 175 169 163 159 156 153 145 140 139 110 79 71 62 44 75 154 284 1 6 351 319 103 124 72 243 161 323 142 71 6 325 224 175 136 120 124 132 129 111 98 98 85 110 135 129 178 173 192 90 64 168 103 245 151 272 336 295 255 219 178 211 206 174 208 211 239 65 21 355 1 59 98 95 0 339 348 151 234 229 224 210 210 184 170 173 164
177 168 163 159 152 151 152 151 144 129 112 98 90 84 70 39 4 348 343 17 21 98 98 129 75 51 145 212 50 53 48 264 206 187 169 146 149 159 156 156 146 131 98 65 23 43 187 210 73 125 161 255 115 200 135 205 204 235 227 201 198 233 28 1 28 49 87 115 78 46 50 20 57 70 47 308 287 235 248 244 195 189 181 180 193 205 198
178 175 167 161 154 149 148 154 148 139 134 120 108 77 129 171 193 237 173 135 137 297 117 115 86 195 39 30 325 23 50 103 159 139 142 143 154 168 175 166 171 159 150 184 216 203 198 176 156 293 322 326 129 237 208 228 237 244 236 198 195 208 138 168 45 322 338 107 68 64 52 78 67 355 279 272 271 249 280 346 23 338 180 184 211 217 237
181 179 173 165 160 152 148 153 146 150 144 162 167 85 108 266 198 196 158 139 135 84 176 263 224 76 24 294 14 127 184 139 140 136 139 155 121 90 42 147 74 166 185 186 211 244 261 221 174 204 149 268 218 264 227 236 251 260 231 206 199 175 180 177 153 205 1 98 92 88 77 75 168 279 248 257 309 315 287 352 52 39 29 170 298 348 356
186 179 176 169 161 153 148 153 156 161 162 172 179 203 27 9 7 130 151 129 150 179 163 120 226 26 256 156 178 336 20 97 84 102 94 164 155 123 37 271 181 182 222 227 230 230 225 238 234 225 176 211 196 253 251 253 249 249 231 188 184 135 107 104 145 168 81 85 100 37 292 192 170 270 354 52 22 15 349 39 48 46 46 53 49 35 19
188 182 177 172 161 152 148 144 150 157 153 96 72 73 71 67 108 143 145 144 143 193 228 222 176 215 207 234 114 351 211 126 101 190 197 180 179 139 159 127 57 61 268 241 207 211 236 219 212 228 218 185 164 210 237 235 240 248 232 109 103 111 98 125 114 299 107 115 152 253 296 1 89 47 37 90 95 53 194 88 79 85 90 112 133 97 65
193 185 174 169 161 149 140 134 128 115 100 106 183 213 122 91 125 144 150 137 134 185 57 177 204 193 222 35 52 184 144 164 178 166 189 155 176 161 193 146 211 207 229 201 225 202 62 195 213 223 208 155 200 243 244 243 244 253 252 244 145 126 220 238 210 242 174 133 177 236 345 80 81 264 178 165 127 94 64 85 117 196 237 225 239 197 155
200 184 178 164 160 145 125 119 105 112 158 167 219 251 170 145 145 163 158 168 127 163 184 248 270 218 213 38 239 182 166 192 179 175 184 143 43 177 189 170 195 212 215 112 242 224 227 215 203 220 219 191 205 227 241 248 247 249 255 240 206 201 231 251 256 256 266 129 173 183 142 142 275 268 250 168 141 154 167 197 205 190 229 239 236 150 153
211 188 171 162 134 119 106 81 94 130 135 184 203 200 206 189 162 175 136 25 117 191 168 210 201 223 217 218 206 178 115 166 196 87 24 125 79 335 247 183 215 216 60 153 210 207 225 196 200 228 206 212 220 221 236 243 258 262 259 247 226 226 242 245 257 174 134 83 73 41 92 154 218 259 286 215 178 170 195 204 213 215 256 264 231 195 177
195 187 155 134 136 115 100 144 83 210 194 114 91 85 89 92 63 48 26 297 284 328 194 201 208 213 211 226 201 143 139 179 176 135 199 157 174 169 151 199 216 184 87 171 220 225 225 221 251 230 214 222 229 232 246 257 257 260 252 245 242 222 230 241 243 207 125 99 61 300 313 292 268 237 244 237 228 187 170 221 211 198 219 231 234 216 216
183 153 126 148 126 142 161 177 191 167 114 119 130 109 16 358 159 185 199 192 242 173 216 233 238 219 213 230 228 212 166 227 158 158 172 190 138 308 204 208 220 191 193 225 225 187 217 156 198 225 240 240 252 256 252 249 252 256 263 269 270 253 254 265 222 128 160 260 281 265 265 257 260 249 236 251 239 218 221 229 229 218 228 237 241 228 202
168 145 108 127 157 168 170 135 107 126 114 60 41 88 72 131 133 25 268 203 169 182 221 215 218 211 196 211 220 87 134 206 132 185 177 223 131 212 158 157 248 127 319 238 237 165 195 202 223 229 242 238 243 245 246 252 260 261 267 281 292 302 244 187 199 204 209 232 249 248 229 242 251 256 237 234 246 236 237 239 235 228 225 233 236 212 204
139 154 146 151 169 122 91 107 147 131 119 119 14 132 139 154 166 216 167 73 308 235 199 218 219 213 206 211 216 216 196 155 154 193 178 168 153 165 199 146 264 117 205 225 220 148 167 198 211 220 241 235 239 241 247 250 259 264 272 273 266 240 202 209 221 225 234 245 250 255 255 251 250 253 256 244 233 243 242 235 233 230 221 225 223 207 207
152 87 125 149 129 120 125 135 112 69 99 130 83 5 162 11 230 319 72 202 210 213 160 238 162 174 201 204 217 223 102 59 339 26 203 167 191 131 271 187 250 109 246 207 215 87 160 204 215 217 233 236 235 237 240 246 253 258 255 241 238 222 204 205 224 231 235 245 252 258 258 258 256 255 254 252 245 238 240 240 230 224 221 222 213 217 222
169 128 127 92 98 117 128 69 82 118 58 350 131 193 171 207 74 19 233 220 202 209 185 177 168 204 194 180 198 225 233 56 324 201 198 225 207 128 210 178 25 113 213 205 89 64 190 194 219 232 231 240 247 244 206 229 259 252 254 249 247 240 210 204 221 235 229 231 240 247 252 253 255 255 255 254 252 246 244 243 240 229 220 223 222 221 184
101 97 99 95 104 74 172 101 217 126 137 140 117 241 157 77 221 195 213 207 350 75 214 75 319 74 15 24 32 336 200 129 158 259 193 194 61 34 156 140 183 171 218 65 98 180 200 191 225 236 240 251 227 206 201 209 246 270 262 260 248 239 227 216 217 232 236 227 236 241 246 251 254 255 257 264 268 271 262 248 239 235 223 216 213 205 192
96 74 77 55 110 275 117 137 187 63 19 173 154 187 177 168 204 118 201 199 174 210 206 131 201 149 187 166 193 162 120 57 114 122 75 331 75 190 176 202 202 232 54 39 205 210 210 201 227 241 244 244 239 184 150 194 224 249 272 265 260 258 239 225 228 235 253 257 267 280 290 284 277 282 289 290 271 265 270 272 260 245 231 191 203 208 195
135 99 71 55 81 204 103 256 59 121 192 205 184 205 181 191 199 173 196 169 111 216 157 175 182 174 194 117 56 278 199 182 175 153 225 163 114 266 143 219 180 110 159 217 200 171 210 232 220 238 241 241 226 215 195 216 217 226 249 284 286 341 31 30 341 340 304 312 305 308 281 273 280 279 279 277 276 271 278 275 284 210 208 202 210 202 191
145 147 145 140 171 270 161 146 93 171 231 168 189 202 200 215 170 182 186 74 172 190 146 199 180 183 157 150 169 202 176 162 115 229 187 131 162 211 186 100 49 167 243 208 220 216 214 215 219 230 225 226 228 228 219 233 4 19 7 286 296 29 29 28 14 348 320 324 316 313 289 291 279 278 278 280 290 288 279 280 303 242 208 198 213 211 191
73 32 99 67 110 191 76 148 206 204 163 179 206 187 200 186 118 140 125 180 199 188 121 48 174 235 183 171 153 338 62 245 180 218 89 93 189 228 38 114 211 192 201 221 220 227 226 221 229 240 242 221 229 252 23 39 27 22 8 337 335 333 351 337 321 306 292 290 285 277 271 270 269 271 286 290 279 258 277 302 300 254 210 225 226 168 166
151 152 94 119 167 153 155 219 143 104 332 193 177 161 74 94 130 225 212 188 237 114 141 145 129 238 278 278 280 220 169 196 195 236 156 207 52 31 253 177 231 223 202 212 219 205 223 223 209 215 219 38 34 30 24 13 6 5 351 340 333 335 340 334 323 325 336 314 300 289 285 284 283 281 273 273 285 293 341 315 287 253 230 230 152 170 173
69 111 146 154 139 132 177 145 137 178 166 107 352 122 148 160 208 202 116 130 159 168 196 128 192 138 256 213 136 229 235 227 165 216 120 72 159 203 199 217 201 221 224 191 226 219 212 182 58 48 48 33 29 29 15 3 347 337 334 334 325 319 318 312 308 309 314 304 291 291 288 289 290 281 277 285 278 290 5 9 337 232 224 198 187 177 179
89 26 47 94 115 4 24 125 186 173 114 109 140 163 181 190 205 148 137 147 164 128 104 82 355 115 230 104 183 246 253 193 188 257 78 201 187 203 137 207 217 212 220 157 207 227 70 43 355 31 37 15 352 357 345 330 334 321 314 310 315 315 305 303 305 306 306 305 303 288 290 295 278 262 264 264 279 339 16 14 12 189 192 181 182 183 181
334 43 75 340 170 164 150 167 185 184 168 181 182 184 169 191 191 157 44 117 136 148 148 186 198 167 180 127 202 232 262 200 106 199 178 204 170 129 196 219 222 185 234 140 72 40 47 17 30 344 342 343 262 311 321 326 312 307 304 306 300 302 298 294 291 296 297 299 294 293 283 271 276 281 304 350 41 201 23 353 38 64 118 94 144 167 173
127 128 182 21 325 350 201 10 329 211 174 189 175 49 137 181 90 87 282 157 165 180 203 177 96 176 182 196 215 208 28 54 254 6 19 259 168 173 216 215 224 208 221 165 92 67 47 51 52 14 283 304 313 315 309 306 290 287 291 296 302 303 303 301 296 292 291 289 283 268 272 283 292 320 235 161 193 190 221 238 145 115 133 150 125 134 136